timestamp,surface_pressure_avg,surface_temp_avg,battery_voltage,lat,long
2023-06-02 00:09:00+00:00,309.5313,7.07,12.97,47.84626,-54.09684
2023-06-02 00:19:01+00:00,302.718,7.12,12.81,47.84626,-54.09684
2023-06-02 00:29:01+00:00,296.3747,7.19,12.81,47.84626,-54.09684
2023-06-02 00:39:01+00:00,289.3214,7.22,12.81,47.84626,-54.09684
2023-06-02 00:49:01+00:00,281.2281,7.27,12.81,47.84626,-54.09684
2023-06-02 00:59:01+00:00,271.5847,7.19,12.81,47.84626,-54.09684
2023-06-02 01:09:01+00:00,262.3281,7.27,12.81,47.84626,-54.09684
2023-06-02 01:19:00+00:00,254.1081,7.3,12.73,47.84626,-54.09684
2023-06-02 01:29:00+00:00,243.4031,7.33,12.73,47.84626,-54.09684
2023-06-02 01:39:00+00:00,234.0631,7.4,12.73,47.84626,-54.09684
2023-06-02 01:49:00+00:00,229.7198,7.44,12.73,47.84626,-54.09684
2023-06-02 01:59:00+00:00,225.7865,7.49,12.73,47.84626,-54.09684
2023-06-02 02:09:00+00:00,220.8431,7.5,12.73,47.84626,-54.09684
2023-06-02 02:19:00+00:00,218.4481,7.5,12.73,47.84626,-54.09684
2023-06-02 02:29:00+00:00,216.6697,7.52,12.73,47.84626,-54.09684
2023-06-02 02:39:00+00:00,211.2231,7.68,12.73,47.84626,-54.09684
2023-06-02 02:49:00+00:00,206.6748,8.0,12.73,47.84626,-54.09684
2023-06-02 02:59:00+00:00,207.0481,8.0,12.73,47.84626,-54.09684
2023-06-02 03:09:00+00:00,204.7765,7.97,12.73,47.84626,-54.09684
2023-06-02 03:19:00+00:00,200.1931,7.8,12.73,47.84626,-54.09684
2023-06-02 03:29:00+00:00,196.8831,7.6,12.73,47.84626,-54.09684
2023-06-02 03:39:00+00:00,195.5031,7.52,12.73,47.84626,-54.09684
2023-06-02 03:49:00+00:00,193.0181,7.67,12.73,47.84626,-54.09684
2023-06-02 03:59:00+00:00,190.2864,7.73,12.73,47.84626,-54.09684
2023-06-02 04:09:00+00:00,189.0398,7.7,12.73,47.84626,-54.09684
2023-06-02 04:19:00+00:00,188.7481,7.87,12.65,47.84626,-54.09684
2023-06-02 04:29:00+00:00,189.6331,8.27,12.65,47.84626,-54.09684
2023-06-02 04:39:00+00:00,192.4015,8.6,12.65,47.84626,-54.09684
2023-06-02 04:49:00+00:00,194.5114,8.77,12.65,47.84626,-54.09684
2023-06-02 04:59:00+00:00,197.1431,8.21,12.65,47.84626,-54.09684
2023-06-02 05:09:00+00:00,200.4547,7.8,12.65,47.84626,-54.09684
2023-06-02 05:19:00+00:00,203.3448,7.6,12.65,47.84626,-54.09684
2023-06-02 05:29:00+00:00,205.2848,7.6,12.65,47.84626,-54.09684
2023-06-02 05:39:00+00:00,209.7498,7.6,12.65,47.84626,-54.09684
2023-06-02 05:49:00+00:00,214.7648,7.7,12.65,47.84626,-54.09684
2023-06-02 05:59:00+00:00,217.7481,7.7,12.65,47.84626,-54.09684
2023-06-02 06:09:00+00:00,220.4264,7.7,12.65,47.84626,-54.09684
2023-06-02 06:19:00+00:00,225.2897,7.8,12.65,47.84626,-54.09684
2023-06-02 06:29:00+00:00,229.6648,7.6,12.65,47.84626,-54.09684
2023-06-02 06:39:00+00:00,231.2631,7.5,12.65,47.84626,-54.09684
2023-06-02 06:49:00+00:00,233.6381,7.5,12.65,47.84626,-54.09684
2023-06-02 06:59:00+00:00,238.1281,7.4,12.65,47.84626,-54.09684
2023-06-02 07:09:00+00:00,242.1964,7.2,12.65,47.84626,-54.09684
2023-06-02 07:19:00+00:00,245.7581,7.3,12.65,47.84626,-54.09684
2023-06-02 07:29:00+00:00,250.6847,7.33,12.65,47.84626,-54.09684
2023-06-02 07:39:00+00:00,255.2414,7.3,12.65,47.84626,-54.09684
2023-06-02 07:49:00+00:00,260.1647,7.2,12.65,47.84626,-54.09684
2023-06-02 07:59:00+00:00,268.4147,7.0,12.65,47.84626,-54.09684
2023-06-02 08:09:00+00:00,278.2247,6.8,12.65,47.84626,-54.09684
2023-06-02 08:19:00+00:00,284.798,6.74,12.65,47.84626,-54.09684
2023-06-02 08:29:00+00:00,291.4614,6.72,12.65,47.84626,-54.09684
2023-06-02 08:39:00+00:00,299.9614,6.7,12.65,47.84626,-54.09684
2023-06-02 08:49:00+00:00,305.0681,6.6,12.65,47.84626,-54.09684
2023-06-02 08:59:00+00:00,307.4547,6.5,12.65,47.84626,-54.09684
2023-06-02 09:09:00+00:00,314.3364,6.4,12.65,47.84626,-54.09684
2023-06-02 09:19:00+00:00,319.123,6.3,12.65,47.84626,-54.09684
2023-06-02 09:29:00+00:00,318.4847,6.3,12.65,47.84626,-54.09684
2023-06-02 09:39:00+00:00,319.9446,6.3,12.65,47.84626,-54.09684
2023-06-02 09:49:00+00:00,324.2297,6.3,12.65,47.84626,-54.09684
2023-06-02 09:59:00+00:00,325.4446,6.35,12.65,47.84626,-54.09684
2023-06-02 10:09:00+00:00,322.163,6.4,12.65,47.84626,-54.09684
2023-06-02 10:19:00+00:00,322.1745,6.3,12.73,47.84626,-54.09684
2023-06-02 10:29:00+00:00,326.2013,6.26,12.73,47.84626,-54.09684
2023-06-02 10:39:00+00:00,326.4247,6.16,12.73,47.84626,-54.09684
2023-06-02 10:49:00+00:00,323.4896,6.21,12.73,47.84626,-54.09684
2023-06-02 10:59:00+00:00,319.923,6.58,12.73,47.84626,-54.09684
2023-06-02 11:09:00+00:00,320.5396,6.8,12.73,47.84626,-54.09684
2023-06-02 11:19:00+00:00,319.3463,6.9,13.05,47.84626,-54.09684
2023-06-02 11:29:00+00:00,317.4247,7.05,13.05,47.84626,-54.09684
2023-06-02 11:39:00+00:00,317.358,7.1,13.05,47.84626,-54.09684
2023-06-02 11:49:00+00:00,315.8763,7.1,13.05,47.84626,-54.09684
2023-06-02 11:59:00+00:00,311.653,7.2,13.05,47.84626,-54.09684
2023-06-02 12:09:00+00:00,307.593,7.25,13.05,47.84626,-54.09684
2023-06-02 12:19:00+00:00,305.0497,7.35,13.29,47.84626,-54.09684
2023-06-02 12:29:00+00:00,299.1297,7.47,13.29,47.84626,-54.09684
2023-06-02 12:39:00+00:00,289.5314,7.91,13.29,47.84626,-54.09684
2023-06-02 12:49:00+00:00,282.048,8.49,13.29,47.84626,-54.09684
2023-06-02 12:59:00+00:00,276.173,7.93,13.29,47.84626,-54.09684
2023-06-02 13:09:00+00:00,266.2214,8.88,13.29,47.84626,-54.09684
2023-06-02 13:19:00+00:00,255.7931,9.09,13.6,47.84626,-54.09684
2023-06-02 13:29:00+00:00,249.9114,9.1,13.6,47.84626,-54.09684
2023-06-02 13:39:00+00:00,241.6547,9.09,13.6,47.84626,-54.09684
2023-06-02 13:49:00+00:00,231.7081,9.19,13.6,47.84626,-54.09684
2023-06-02 13:59:00+00:00,224.1298,9.23,13.6,47.84626,-54.09684
2023-06-02 14:09:00+00:00,219.5464,9.3,13.6,47.84626,-54.09684
2023-06-02 14:19:00+00:00,213.0281,9.39,13.6,47.84626,-54.09684
2023-06-02 14:29:00+00:00,208.1714,9.4,13.6,47.84626,-54.09684
2023-06-02 14:39:00+00:00,204.6014,9.47,13.6,47.84626,-54.09684
2023-06-02 14:49:00+00:00,198.5048,9.5,13.6,47.84626,-54.09684
2023-06-02 14:59:00+00:00,195.2498,9.5,13.6,47.84626,-54.09684
2023-06-02 15:09:00+00:00,192.0715,9.5,13.6,47.84626,-54.09684
2023-06-02 15:19:00+00:00,187.9781,9.52,13.76,47.84626,-54.09684
2023-06-02 15:29:00+00:00,188.5781,9.56,13.76,47.84626,-54.09684
2023-06-02 15:39:00+00:00,191.0998,9.55,13.76,47.84626,-54.09684
2023-06-02 15:49:00+00:00,189.0615,9.5,13.76,47.84626,-54.09684
2023-06-02 15:59:00+00:00,188.4782,9.3,13.76,47.84626,-54.09684
2023-06-02 16:09:00+00:00,190.6648,9.1,13.76,47.84626,-54.09684
2023-06-02 16:19:00+00:00,190.8964,9.21,13.92,47.84626,-54.09684
2023-06-02 16:29:00+00:00,190.0915,9.2,13.92,47.84626,-54.09684
2023-06-02 16:39:00+00:00,192.2548,9.2,13.92,47.84626,-54.09684
2023-06-02 16:49:00+00:00,194.3731,9.56,13.92,47.84626,-54.09684
2023-06-02 16:59:00+00:00,193.7515,9.32,13.92,47.84626,-54.09684
2023-06-02 17:09:00+00:00,194.9781,9.8,13.92,47.84626,-54.09684
2023-06-02 17:19:00+00:00,198.6581,9.32,13.92,47.84626,-54.09684
2023-06-02 17:29:00+00:00,199.8548,8.46,13.92,47.84626,-54.09684
2023-06-02 17:39:00+00:00,201.6498,8.76,13.92,47.84626,-54.09684
2023-06-02 17:49:00+00:00,207.9131,9.09,13.92,47.84626,-54.09684
2023-06-02 17:59:00+00:00,213.6431,9.36,13.92,47.84626,-54.09684
2023-06-02 18:09:00+00:00,217.4114,9.64,13.92,47.84626,-54.09684
2023-06-02 18:19:00+00:00,221.8865,9.8,13.68,47.84626,-54.09684
2023-06-02 18:29:00+00:00,228.6248,9.86,13.68,47.84626,-54.09684
2023-06-02 18:39:00+00:00,235.1781,9.82,13.68,47.84626,-54.09684
2023-06-02 18:49:00+00:00,240.6815,10.0,13.68,47.84626,-54.09684
2023-06-02 18:59:00+00:00,245.1531,10.19,13.68,47.84626,-54.09684
2023-06-02 19:09:00+00:00,252.8364,9.63,13.68,47.84626,-54.09684
2023-06-02 19:19:00+00:00,260.6565,8.48,13.68,47.84626,-54.09684
2023-06-02 19:29:00+00:00,267.7081,8.44,13.68,47.84626,-54.09684
2023-06-02 19:39:00+00:00,272.5181,9.53,13.68,47.84626,-54.09684
2023-06-02 19:49:00+00:00,279.5231,8.61,13.68,47.84626,-54.09684
2023-06-02 19:59:00+00:00,286.7281,8.64,13.68,47.84626,-54.09684
2023-06-02 20:09:00+00:00,294.698,8.75,13.68,47.84626,-54.09684
2023-06-02 20:19:00+00:00,301.683,8.66,13.37,47.84626,-54.09684
2023-06-02 20:29:00+00:00,308.9596,8.6,13.37,47.84626,-54.09684
2023-06-02 20:39:00+00:00,316.4796,8.4,13.37,47.84626,-54.09684
2023-06-02 20:49:00+00:00,324.6981,8.2,13.37,47.84626,-54.09684
2023-06-02 20:59:00+00:00,332.9946,7.45,13.37,47.84626,-54.09684
2023-06-02 21:09:00+00:00,339.5080000000001,7.11,13.37,47.84626,-54.09684
2023-06-02 21:19:00+00:00,343.033,7.09,13.21,47.84626,-54.09684
2023-06-02 21:29:00+00:00,344.1779,6.8,13.21,47.84626,-54.09684
2023-06-02 21:39:00+00:00,347.6546,6.58,13.21,47.84626,-54.09684
2023-06-02 21:49:00+00:00,351.9446,6.0,13.21,47.84626,-54.09684
2023-06-02 21:59:00+00:00,354.8981,6.25,13.21,47.84626,-54.09684
2023-06-02 22:09:00+00:00,356.8929,6.61,13.21,47.84626,-54.09684
2023-06-02 22:19:00+00:00,359.3931,6.85,12.97,47.84626,-54.09684
2023-06-02 22:29:00+00:00,359.1647,6.98,12.97,47.84626,-54.09684
2023-06-02 22:39:00+00:00,358.4296,6.9,12.97,47.84626,-54.09684
2023-06-02 22:49:00+00:00,361.2129,6.7,12.97,47.84626,-54.09684
2023-06-02 22:59:00+00:00,360.7296,6.79,12.97,47.84626,-54.09684
2023-06-02 23:09:00+00:00,355.4613,6.9,12.97,47.84626,-54.09684
2023-06-02 23:19:00+00:00,353.5195,6.87,12.81,47.84626,-54.09684
2023-06-02 23:29:00+00:00,350.81800000000015,7.02,12.81,47.84626,-54.09684
2023-06-02 23:39:00+00:00,342.6646,7.43,12.81,47.84626,-54.09684
2023-06-02 23:49:00+00:00,337.5129,7.7,12.81,47.84626,-54.09684
2023-06-02 23:59:00+00:00,337.9447,8.02,12.81,47.84626,-54.09684
